Location: Kalberh�ni
(46.4610°N, 7.2453°E)
Time: 14:18:07
(UTC+00:00)

Cosmos 2333 Rocket - Visible Passes

Search period start: 22 October 2021 00:00
Search period end: 01 November 2021 00:00
Orbit: 839 x 863 km, 70.8° (Epoch: 22 October)

Date Brightness Start Highest point End Pass type
(mag) Time Alt. Az. Time Alt. Az. Time Alt. Az.
22 Oct 3.7 03:51:24 10° NNW 03:56:43 36° NE 04:01:59 10° ESE visible
22 Oct 4.2 18:47:21 10° S 18:47:58 13° S 18:47:58 13° S visible
23 Oct 3.7 03:39:10 10° NNW 03:44:29 36° NE 03:49:46 10° ESE visible
23 Oct 2.7 05:23:26 10° NW 05:28:50 42° WSW 05:34:13 10° S visible
23 Oct 3.4 18:35:07 10° S 18:37:49 26° SSE 18:37:49 26° SSE visible
23 Oct 4.7 20:19:26 10° WSW 20:19:57 12° WSW 20:19:57 12° WSW visible
24 Oct 3.7 03:26:56 10° NNW 03:32:15 36° NE 03:37:32 10° ESE visible
24 Oct 2.6 05:11:12 10° NW 05:16:36 42° WSW 05:21:59 10° S visible
24 Oct 2.6 18:22:52 10° S 18:27:35 39° ESE 18:27:35 39° ESE visible
24 Oct 4.1 20:07:11 10° WSW 20:09:42 24° WSW 20:09:42 24° WSW visible
25 Oct 3.6 03:14:42 10° NNW 03:20:00 36° NE 03:25:18 10° ESE visible
25 Oct 2.6 04:58:58 10° NW 05:04:22 42° WSW 05:09:45 10° S visible
25 Oct 2.6 18:10:38 10° S 18:15:52 40° ESE 18:17:13 35° ENE visible
25 Oct 3.6 19:54:57 10° WSW 19:59:19 35° WNW 19:59:19 35° WNW visible
26 Oct 3.6 03:03:17 14° N 03:07:46 36° NE 03:13:04 10° ESE visible
26 Oct 2.6 04:46:44 10° NW 04:52:08 42° WSW 04:57:31 10° S visible
26 Oct 2.6 17:58:24 10° S 18:03:38 40° ESE 18:06:38 23° NE visible
26 Oct 3.5 19:42:43 10° WSW 19:47:58 37° NW 19:48:43 35° NW visible
27 Oct 3.6 02:52:40 23° N 02:55:33 36° NE 03:00:50 10° ESE visible
27 Oct 2.6 04:34:47 11° NW 04:39:54 42° WSW 04:45:16 10° S visible
27 Oct 2.6 17:46:09 10° S 17:51:24 40° ESE 17:55:48 15° NE visible
27 Oct 3.5 19:30:29 10° WSW 19:35:43 37° NW 19:37:52 28° N visible
28 Oct 3.6 02:42:17 34° NNE 02:43:19 36° NE 02:48:36 10° ESE visible
28 Oct 2.6 04:24:24 22° NW 04:27:40 42° WSW 04:33:02 10° S visible
28 Oct 2.6 17:33:55 10° S 17:39:10 40° ESE 17:44:29 10° NE visible
28 Oct 3.5 19:18:15 10° WSW 19:23:29 37° NW 19:26:47 20° N visible
29 Oct 3.7 02:32:03 34° ENE 02:32:03 34° ENE 02:36:22 10° ESE visible
29 Oct 2.5 04:14:11 37° WNW 04:15:26 42° WSW 04:20:48 10° S visible
29 Oct 2.6 17:21:41 10° S 17:26:56 40° ESE 17:32:15 10° NE visible
29 Oct 3.5 19:06:01 10° WSW 19:11:15 37° NW 19:15:28 15° N visible
30 Oct 4.3 02:21:54 22° ESE 02:21:54 22° ESE 02:24:08 10° ESE visible
30 Oct 2.7 04:04:02 40° SW 04:04:02 40° SW 04:08:34 10° S visible
30 Oct 2.7 17:09:27 10° S 17:14:42 40° ESE 17:20:01 10° NE visible
30 Oct 3.6 18:53:47 10° WSW 18:59:01 37° NW 19:03:59 12° NNE visible
31 Oct 4.9 02:11:45 11° ESE 02:11:45 11° ESE 02:11:54 10° ESE visible
31 Oct 3.5 03:53:53 24° SSW 03:53:53 24° SSW 03:56:20 10° S visible
31 Oct 2.7 16:57:12 10° S 17:02:28 40° ESE 17:07:46 10° NE visible
31 Oct 3.6 18:41:32 10° WSW 18:46:47 37° NW 18:52:05 10° NNE visible
